Home   Weather   Kvernaland   Past weeks

Flag for Norway Past Weather in Kvernaland, Norway — Yesterday and Last 2 Weeks

Now
56 °F

Partly sunny.


Feels Like: 56 °F
Forecast: 49 / 59 °F
Wind: 3 mph from West

Location: Stavanger / Sola

Current Time: Oct 1, 2016 at 2:06:44 PM

Latest Report: Oct 1, 2016 at 1:00 PM


Visibility: 22 mi

Pressure: 29.79 "Hg

Humidity: 71%

Dew Point: 46 °F

Location of KvernalandLocation

Past Weather in Kvernaland — Graph

°F

Kvernaland Temperature Yesterday

Maximum temperature yesterday: 56 °F (at 1:00 PM)
Minimum temperature yesterday: 51 °F (at 7:00 AM)
Average temperature yesterday: 54 °F

High & Low Weather Summary for the Past Weeks

 TemperatureHumidityPressure
High77 °F (Sep 16, 2:00 PM)98% (Sep 20, 4:00 AM)30.24 "Hg (Sep 20, 4:00 AM)
Low49 °F (Oct 1, 8:00 AM)46% (Sep 25, 4:00 PM)29.18 "Hg (Sep 29, 3:00 PM)
Average59 °F77%29.96 "Hg
* Reported Sep 16 12:00 PM — Oct 1 12:00 PM, Kvernaland, Weather by CustomWeather, © 2016

Note: Actual official high and low records may vary slightly from our data, if they occured in-between our weather recording intervals... More about our weather records

Advertising

Kvernaland Weather History for the Previous 24 Hours

Scroll right to see more
 ConditionsComfort  
Time TempWeatherWind HumidityBarometerVisibility
12:00 PM
Sat, Oct 1
56 °FPartly sunny.3 mph70%29.78 "Hg22 mi
11:00 AM55 °FPartly sunny.1 mph79%29.77 "Hg22 mi
10:00 AM52 °FOvercast.3 mph84%29.75 "Hg28 mi
9:00 AM53 °FOvercast.2 mph79%29.73 "Hg31 mi
8:00 AM49 °FScattered clouds.2 mph93%29.71 "Hg19 mi
7:00 AM49 °FOvercast.2 mph93%29.70 "Hg22 mi
6:00 AM50 °FRain showers. Passing clouds.3 mph93%29.70 "Hg9 mi
5:00 AM51 °FLots of rain. Passing clouds.1 mph88%29.69 "Hg8 mi
3:00 AM51 °FRain showers. Passing clouds.2 mph87%29.67 "Hg7 mi
2:00 AM52 °FPassing clouds.6 mph84%29.66 "Hg16 mi
1:00 AM53 °FPassing clouds.7 mph75%29.65 "Hg19 mi
12:00 AM53 °FPassing clouds.6 mph75%29.64 "Hg19 mi
11:00 PM
Fri, Sep 30
52 °FRain showers. Passing clouds.6 mph75%29.63 "Hg10 mi
10:00 PM52 °FRain showers. Passing clouds.10 mph78%29.62 "Hg8 mi
9:00 PM53 °FPassing clouds.7 mph74%29.60 "Hg16 mi
8:00 PM54 °FLots of rain. Passing clouds.8 mph70%29.57 "Hg11 mi
7:00 PM54 °FPartly sunny.8 mph71%29.56 "Hg14 mi
6:00 PM54 °FPassing clouds.8 mph68%29.55 "Hg18 mi
5:00 PM54 °FScattered clouds.9 mph71%29.55 "Hg13 mi
4:00 PM54 °FRain showers. Passing clouds.9 mph65%29.55 "Hg13 mi
3:00 PM56 °FScattered clouds.12 mph66%29.54 "Hg16 mi
2:00 PM56 °FPartly sunny.12 mph62%29.54 "Hg14 mi
Weather by CustomWeather, © 2016

See weather overviewHow to use our weather pages